Weather History for KVYS - February, 2011

Change the Weather History Date:

Tuesday, February 22, 2011

  Actual Average Record
Temperature  
Mean Temperature 29 °F -  
Max Temperature 30 °F 40 °F 59 °F (1991)
Min Temperature 28 °F 22 °F -5 °F (1978)
Degree Days  
Heating Degree Days 36    
Moisture  
Dew Point 25 °F    
Average Humidity 83    
Maximum Humidity 93    
Minimum Humidity 70    
Precipitation  
Precipitation 0.05 in - - ()
Sea Level Pressure  
Sea Level Pressure 30.12 in    
Wind  
Wind Speed 6 mph (NNE)    
Max Wind Speed 12 mph    
Max Gust Speed -    
Visibility 8 miles    
Events Snow    
Averages and records for this station are not official NWS values.
T = Trace of Precipitation, MM = Missing Value Source: NWS Daily Summary

Daily Weather History Graph

Daily Weather History Graph

Search for Another Location

Airport or City:

Trip Planner

Search our weather history database for the weather conditions in past years. The results will help you decide how hot, cold, wet, or windy it might be!

Date:

Astronomy

Feb. 22, 2011 Rise Set
Actual Time 6:42 AM CST 5:38 PM CST
Civil Twilight 6:14 AM CST 6:06 PM CST
Nautical Twilight 5:41 AM CST 6:38 PM CST
Astronomical Twilight 5:09 AM CST 7:10 PM CST
Moon 11:30 PM CST (2/22) 8:43 AM CST (2/22)
Length of Visible Light 11h 52m
Length of Day
10h 56m
Waning Gibbous, 74% of the Moon is Illuminated
Feb 22
Waning Gibbous
Feb 24
Last Quarter
Mar 4
New
Mar 12
First Quarter
Mar 19
Full

Hourly Weather History & Observations

Time (CST) Temp. Windchill Dew Point Humidity Pressure Visibility Wind Dir Wind Speed Gust Speed Precip Events Conditions
12:05 AM 30.2 °F 22.6 °F 27.7 °F 90% 29.94 in 4.0 mi WNW 8.1 mph - N/A   Overcast
12:25 AM 29.8 °F 20.3 °F 27.5 °F 91% 29.95 in 3.0 mi West 11.5 mph - 0.01 in   Light Freezing Rain
12:45 AM 29.7 °F 22.8 °F 27.5 °F 92% 29.96 in 2.5 mi West 6.9 mph - 0.01 in   Overcast
1:05 AM 29.3 °F 19.6 °F 27.3 °F 92% 29.95 in 2.0 mi West 11.5 mph - N/A   Overcast
1:25 AM 29.3 °F 22.3 °F 27.3 °F 92% 29.95 in 2.5 mi WSW 6.9 mph - N/A   Overcast
1:45 AM 28.9 °F 21.9 °F 27.0 °F 92% 29.96 in 7.0 mi West 6.9 mph - 0.01 in   Overcast
2:05 AM 28.9 °F 21.1 °F 26.8 °F 92% 29.97 in 7.0 mi WNW 8.1 mph - N/A   Overcast
2:25 AM 28.4 °F 22.2 °F 26.6 °F 93% 29.97 in 7.0 mi West 5.8 mph - N/A Snow Light Snow
2:45 AM 29.1 °F 22.1 °F 26.4 °F 90% 29.97 in 7.0 mi West 6.9 mph - 0.01 in   Overcast
3:05 AM 29.3 °F 23.2 °F 26.4 °F 89% 29.98 in 7.0 mi West 5.8 mph - N/A Snow Light Snow
3:25 AM 29.3 °F 22.3 °F 26.2 °F 88% 29.98 in 7.0 mi West 6.9 mph - 0.01 in   Overcast
3:45 AM 29.3 °F 23.2 °F 26.6 °F 90% 29.99 in 7.0 mi West 5.8 mph - 0.01 in   Overcast
4:05 AM 29.3 °F 24.3 °F 26.6 °F 90% 30.00 in 7.0 mi West 4.6 mph - N/A   Overcast
4:25 AM 29.7 °F 26.1 °F 27.0 °F 90% 30.00 in 7.0 mi West 3.5 mph - 0.01 in   Overcast
4:45 AM 29.7 °F - 27.0 °F 90% 30.01 in 7.0 mi Calm Calm - 0.01 in   Overcast
5:05 AM 29.8 °F - 27.3 °F 90% 30.02 in 5.0 mi Calm Calm - N/A   Overcast
5:25 AM 29.8 °F - 27.3 °F 90% 30.03 in 5.0 mi Calm Calm - N/A   Overcast
5:45 AM 29.8 °F - 27.3 °F 90% 30.04 in 5.0 mi Calm Calm - N/A Snow Light Snow
6:05 AM 29.1 °F 21.3 °F 26.6 °F 90% 30.05 in 7.0 mi ENE 8.1 mph - N/A Snow Light Snow
6:25 AM 28.4 °F 19.1 °F 25.7 °F 90% 30.07 in 7.0 mi ENE 10.4 mph - N/A   Overcast
6:45 AM 28.4 °F 19.1 °F 25.7 °F 90% 30.08 in 4.0 mi ENE 10.4 mph - N/A Snow Light Snow
7:05 AM 28.2 °F 18.9 °F 25.3 °F 89% 30.09 in 4.0 mi ENE 10.4 mph - N/A Snow Light Snow
7:25 AM 28.2 °F 20.2 °F 25.5 °F 90% 30.11 in 5.0 mi ENE 8.1 mph - N/A Snow Light Snow
7:45 AM 28.2 °F 20.2 °F 25.3 °F 89% 30.11 in 5.0 mi ENE 8.1 mph - N/A Snow Light Snow
8:05 AM 28.2 °F 18.9 °F 25.3 °F 89% 30.12 in 5.0 mi NE 10.4 mph - N/A Snow Light Snow
8:25 AM 28.0 °F 20.0 °F 25.0 °F 88% 30.13 in 5.0 mi ENE 8.1 mph - N/A Snow Light Snow
8:45 AM 28.0 °F 21.7 °F 24.1 °F 85% 30.13 in 7.0 mi ENE 5.8 mph - N/A Snow Light Snow
9:05 AM 28.2 °F 22.0 °F 24.4 °F 86% 30.14 in 10.0 mi ENE 5.8 mph - N/A   Overcast
9:25 AM 28.8 °F 20.9 °F 24.4 °F 84% 30.15 in 10.0 mi NE 8.1 mph - N/A   Overcast
9:45 AM 28.4 °F 21.2 °F 23.5 °F 82% 30.16 in 10.0 mi ENE 6.9 mph - 0.01 in   Overcast
10:05 AM 28.6 °F 19.9 °F 23.5 °F 81% 30.17 in 10.0 mi ENE 9.2 mph - N/A   Overcast
10:25 AM 29.1 °F 23.0 °F 23.7 °F 80% 30.18 in 10.0 mi ENE 5.8 mph - N/A   Overcast
10:45 AM 29.1 °F 22.1 °F 23.4 °F 79% 30.19 in 10.0 mi ENE 6.9 mph - N/A   Overcast
11:05 AM 29.5 °F - 23.5 °F 79% 30.20 in 10.0 mi Calm Calm - N/A   Overcast
11:25 AM 29.3 °F 25.6 °F 23.7 °F 80% 30.21 in 7.0 mi East 3.5 mph - N/A   Overcast
11:45 AM 29.3 °F - 24.1 °F 81% 30.21 in 7.0 mi Calm Calm - N/A   Overcast
12:05 PM 29.1 °F 23.0 °F 24.4 °F 83% 30.21 in 7.0 mi NE 5.8 mph - N/A   Overcast
12:25 PM 29.3 °F 23.2 °F 24.8 °F 83% 30.20 in 7.0 mi NNE 5.8 mph - N/A   Overcast
12:45 PM 29.7 °F 26.1 °F 24.6 °F 81% 30.20 in 10.0 mi NE 3.5 mph - N/A   Overcast
1:05 PM 29.8 °F 24.9 °F 23.5 °F 77% 30.20 in 10.0 mi North 4.6 mph - N/A   Overcast
1:25 PM 29.7 °F 24.7 °F 23.9 °F 79% 30.21 in 10.0 mi NNE 4.6 mph - N/A   Overcast
1:45 PM 30.0 °F 22.4 °F 23.2 °F 76% 30.20 in 10.0 mi NNE 8.1 mph - N/A   Overcast
2:05 PM 30.0 °F 24.1 °F 21.7 °F 71% 30.21 in 10.0 mi North 5.8 mph - N/A   Overcast
2:25 PM 30.0 °F 25.2 °F 21.7 °F 71% 30.23 in 10.0 mi North 4.6 mph - N/A   Overcast
2:45 PM 29.8 °F 26.3 °F 21.0 °F 70% 30.24 in 10.0 mi NNE 3.5 mph - N/A   Overcast
3:05 PM 30.0 °F - 21.4 °F 70% 30.24 in 10.0 mi Calm Calm - N/A   Overcast
3:25 PM 29.8 °F - 21.0 °F 70% 30.25 in 10.0 mi Calm Calm - N/A   Overcast
3:45 PM 29.8 °F - 21.6 °F 71% 30.25 in 10.0 mi Calm Calm - N/A   Overcast
4:05 PM 29.8 °F - 21.7 °F 72% 30.25 in 10.0 mi Calm Calm - N/A   Overcast
4:25 PM 29.8 °F 26.3 °F 22.1 °F 73% 30.25 in 10.0 mi North 3.5 mph - N/A   Overcast
4:45 PM 29.8 °F 26.3 °F 22.1 °F 73% 30.25 in 10.0 mi North 3.5 mph - N/A   Overcast
5:05 PM 29.7 °F - 22.1 °F 73% 30.25 in 10.0 mi Calm Calm - N/A   Overcast
5:25 PM 29.3 °F 24.3 °F 23.0 °F 77% 30.26 in 10.0 mi ENE 4.6 mph - N/A   Overcast
5:45 PM 29.3 °F 24.3 °F 23.4 °F 78% 30.25 in 10.0 mi ENE 4.6 mph - N/A   Overcast
6:05 PM 29.3 °F 22.3 °F 23.0 °F 77% 30.26 in 10.0 mi ENE 6.9 mph - N/A   Overcast
6:25 PM 29.3 °F 21.5 °F 23.7 °F 80% 30.26 in 10.0 mi East 8.1 mph - N/A   Overcast
6:45 PM 29.3 °F 22.3 °F 23.7 °F 80% 30.25 in 10.0 mi East 6.9 mph - N/A   Overcast
7:05 PM 29.1 °F 22.1 °F 23.0 °F 78% 30.26 in 10.0 mi East 6.9 mph - N/A   Overcast
7:25 PM 29.3 °F 24.3 °F 23.5 °F 79% 30.26 in 10.0 mi East 4.6 mph - N/A   Overcast
7:45 PM 29.1 °F 25.4 °F 23.2 °F 78% 30.26 in 10.0 mi East 3.5 mph - N/A   Overcast
8:05 PM 29.1 °F 25.4 °F 23.0 °F 78% 30.26 in 10.0 mi East 3.5 mph - N/A   Overcast
8:25 PM 29.1 °F 25.4 °F 22.8 °F 77% 30.26 in 10.0 mi East 3.5 mph - N/A   Overcast
8:45 PM 29.3 °F 25.6 °F 22.5 °F 76% 30.26 in 10.0 mi East 3.5 mph - N/A   Overcast
9:05 PM 29.3 °F - 22.6 °F 76% 30.26 in 10.0 mi Calm Calm - N/A   Overcast
9:25 PM 29.3 °F - 22.1 °F 75% 30.26 in 10.0 mi Calm Calm - N/A   Overcast
9:45 PM 29.3 °F 25.6 °F 22.1 °F 75% 30.26 in 10.0 mi SE 3.5 mph - N/A   Overcast
10:05 PM 29.3 °F 24.3 °F 23.2 °F 78% 30.26 in 10.0 mi SE 4.6 mph - N/A   Overcast
10:25 PM 29.1 °F 24.1 °F 23.0 °F 78% 30.26 in 10.0 mi SSE 4.6 mph - N/A   Overcast
10:45 PM 29.1 °F 25.4 °F 21.7 °F 74% 30.26 in 10.0 mi SSE 3.5 mph - N/A   Overcast
11:05 PM 28.9 °F 23.9 °F 21.9 °F 75% 30.25 in 10.0 mi SE 4.6 mph - N/A   Overcast
11:25 PM 28.4 °F 22.2 °F 21.2 °F 74% 30.25 in 10.0 mi South 5.8 mph - N/A   Overcast
11:45 PM 29.1 °F 21.3 °F 21.2 °F 72% 30.25 in 10.0 mi SE 8.1 mph - N/A   Overcast